Погода в Бережке

Россия / Ивановская область     56°39′11″N   39°55′36″E
темп.,
°C
ветер,
м/с
пор.,
м/с
влажн.,
%
обл.,
%
осадки,
мм/ч
давл.,
гПа
погр.,
м
24 мая, вт
вт2400:00+2зюз0175100 0.0 100310
03:00+1ссз2697100 0.3 1004392
06:00+1сз3799100 1.6 1004233
09:00+2ссз4897100 2.4 1005538
12:00+4ссз3587100 0.8 1006889
15:00+5ссз4582100 1.6 10081193
18:00+5ссз3687100 0.8 1009817
21:00+2ссз389691 1.1 1011229
25 мая, ср
ср2500:00−1ссз279811 0.0 1012142
03:00−2сз25976 0.0 101498
06:00+1сз36935 0.0 1014200
09:00+6сз467262 0.0 10141120
12:00+8сз456199 0.1 10141287
15:00+11сз354676 0.1 10131880
18:00+10зсз355998 0.1 10131156
21:00+6юз1175100 0.1 101210
26 мая, чт
чт2600:00+4з258381 0.0 1012100
03:00+3з2796100 0.0 1011142
06:00+5зсз368861 0.0 1010272
09:00+10з3467100 0.1 10101137
12:00+11з2362100 0.1 10091297
15:00+13юз135558 0.1 10071114
18:00+15юв2361100 0.0 1005662
21:00+9юв3982100 0.0 1004223
27 мая, пт
пт2700:00+9ю2397100 0.7 100276
03:00+10ю4998100 1.1 1000341
06:00+9ю3899100 3.4 999426
09:00+11юз2490100 6.8 998514
12:00+13з3686100 2.1 998965
15:00+12зсз3890100 3.9 998628
18:00+13з48895 1.8 999672
21:00+9зюз31095100 2.9 1000382
28 мая, сб
сб2800:00+7ююз3896100 0.0 1000168
03:00+7ююз2894100 0.0 999189
06:00+8ююз1597100 1.3 998208
09:00+8юв1499100 3.3 997357
12:00+11зюз498985 1.4 997837
15:00+13з611731 2.7 9991652
18:00+13з512610 0.3 10001477
21:00+7ююз368794 0.4 1002116